TimeCST,TemperatureF,Dew PointF,Humidity,Sea Level PressureIn,VisibilityMPH,Wind Direction,Wind SpeedMPH,Gust SpeedMPH,PrecipitationIn,Events,Conditions,WindDirDegrees,DateUTC
12:15 AM,37.4,14.0,38,29.99,10.0,SSE,19.6,-,N/A,,Clear,160,2013-02-09 06:15:00
12:35 AM,37.4,14.0,38,29.97,10.0,SSE,23.0,-,N/A,,Clear,160,2013-02-09 06:35:00
12:55 AM,39.2,15.8,39,29.97,10.0,SSE,24.2,31.1,N/A,,Clear,160,2013-02-09 06:55:00
1:15 AM,37.4,17.6,45,29.96,10.0,SSE,21.9,28.8,N/A,,Clear,160,2013-02-09 07:15:00
1:35 AM,39.2,15.8,39,29.96,10.0,SSE,20.7,28.8,N/A,,Clear,160,2013-02-09 07:35:00
1:55 AM,39.2,14.0,36,29.95,10.0,SSE,20.7,-,N/A,,Clear,160,2013-02-09 07:55:00
2:15 AM,37.4,14.0,38,29.95,10.0,South,19.6,25.3,N/A,,Clear,170,2013-02-09 08:15:00
2:35 AM,37.4,14.0,38,29.94,10.0,South,23.0,31.1,N/A,,Clear,170,2013-02-09 08:35:00
2:55 AM,37.4,14.0,38,29.94,10.0,SSE,18.4,25.3,N/A,,Clear,150,2013-02-09 08:55:00
3:15 AM,37.4,14.0,38,29.92,10.0,SSE,20.7,27.6,N/A,,Clear,160,2013-02-09 09:15:00
3:35 AM,37.4,14.0,38,29.91,10.0,SSE,23.0,29.9,N/A,,Clear,160,2013-02-09 09:35:00
3:55 AM,37.4,15.8,41,29.90,10.0,South,21.9,28.8,N/A,,Clear,170,2013-02-09 09:55:00
4:15 AM,35.6,15.8,44,29.89,10.0,South,24.2,32.2,N/A,,Clear,170,2013-02-09 10:15:00
4:35 AM,35.6,15.8,44,29.89,10.0,SSE,23.0,28.8,N/A,,Clear,160,2013-02-09 10:35:00
4:55 AM,35.6,17.6,48,29.87,10.0,SSE,24.2,29.9,N/A,,Clear,160,2013-02-09 10:55:00
5:15 AM,37.4,17.6,45,29.87,10.0,South,25.3,31.1,N/A,,Clear,170,2013-02-09 11:15:00
5:35 AM,37.4,17.6,45,29.86,10.0,SSE,25.3,31.1,N/A,,Clear,160,2013-02-09 11:35:00
5:55 AM,37.4,17.6,45,29.86,10.0,South,24.2,29.9,N/A,,Clear,170,2013-02-09 11:55:00
6:15 AM,37.4,17.6,45,29.85,10.0,South,23.0,29.9,N/A,,Clear,170,2013-02-09 12:15:00
6:35 AM,37.4,19.4,48,29.85,10.0,SSE,23.0,31.1,N/A,,Clear,160,2013-02-09 12:35:00
6:55 AM,37.4,19.4,48,29.85,10.0,South,23.0,32.2,N/A,,Clear,170,2013-02-09 12:55:00
7:15 AM,37.4,19.4,48,29.84,10.0,SSE,23.0,31.1,N/A,,Clear,160,2013-02-09 13:15:00
7:35 AM,35.6,19.4,52,29.84,10.0,SSE,25.3,29.9,N/A,,Clear,160,2013-02-09 13:35:00
7:55 AM,35.6,21.2,56,29.84,10.0,SSE,26.5,29.9,N/A,,Clear,160,2013-02-09 13:55:00
8:15 AM,37.4,21.2,52,29.84,10.0,SSE,24.2,33.4,N/A,,Clear,160,2013-02-09 14:15:00
8:35 AM,37.4,21.2,52,29.83,10.0,SSE,24.2,33.4,N/A,,Clear,160,2013-02-09 14:35:00
8:55 AM,37.4,23.0,56,29.82,10.0,SSE,29.9,34.5,N/A,,Clear,160,2013-02-09 14:55:00
9:15 AM,39.2,23.0,52,29.81,10.0,SSE,28.8,34.5,N/A,,Clear,160,2013-02-09 15:15:00
9:35 AM,41.0,24.8,53,29.82,10.0,South,25.3,35.7,N/A,,Clear,170,2013-02-09 15:35:00
9:55 AM,42.8,26.6,53,29.82,10.0,SSE,27.6,35.7,N/A,,Clear,160,2013-02-09 15:55:00
10:15 AM,44.6,26.6,49,29.81,10.0,South,23.0,38.0,N/A,,Clear,170,2013-02-09 16:15:00
10:35 AM,44.6,28.4,53,29.80,10.0,South,29.9,34.5,N/A,,Clear,170,2013-02-09 16:35:00
10:55 AM,46.4,28.4,50,29.78,7.0,South,28.8,43.7,N/A,,Clear,170,2013-02-09 16:55:00
11:15 AM,48.2,30.2,50,29.78,10.0,South,32.2,40.3,N/A,,Clear,180,2013-02-09 17:15:00
11:35 AM,46.4,30.2,53,29.76,7.0,South,29.9,38.0,N/A,,Clear,170,2013-02-09 17:35:00
11:55 AM,50.0,32.0,50,29.76,10.0,South,27.6,38.0,N/A,,Clear,180,2013-02-09 17:55:00
12:15 PM,51.8,32.0,47,29.74,10.0,South,29.9,36.8,N/A,,Clear,180,2013-02-09 18:15:00
12:35 PM,51.8,32.0,47,29.73,10.0,South,33.4,39.1,N/A,,Clear,180,2013-02-09 18:35:00
12:55 PM,53.6,32.0,44,29.71,10.0,South,29.9,38.0,N/A,,Clear,180,2013-02-09 18:55:00
1:15 PM,53.6,32.0,44,29.70,10.0,South,28.8,39.1,N/A,,Clear,170,2013-02-09 19:15:00
1:35 PM,53.6,33.8,47,29.68,10.0,South,31.1,39.1,N/A,,Clear,180,2013-02-09 19:35:00
1:55 PM,55.4,33.8,44,29.66,10.0,South,29.9,39.1,N/A,,Clear,170,2013-02-09 19:55:00
2:15 PM,55.4,33.8,44,29.65,10.0,South,28.8,36.8,N/A,,Clear,180,2013-02-09 20:15:00
2:35 PM,55.4,33.8,44,29.64,10.0,South,31.1,38.0,N/A,,Clear,180,2013-02-09 20:35:00
2:55 PM,55.4,33.8,44,29.62,10.0,South,29.9,38.0,N/A,,Clear,180,2013-02-09 20:55:00
3:15 PM,57.2,33.8,41,29.61,10.0,South,25.3,36.8,N/A,,Clear,170,2013-02-09 21:15:00
3:35 PM,57.2,33.8,41,29.58,10.0,South,28.8,35.7,N/A,,Clear,170,2013-02-09 21:35:00
3:55 PM,57.2,35.6,44,29.58,10.0,South,28.8,40.3,N/A,,Clear,170,2013-02-09 21:55:00
4:15 PM,57.2,35.6,44,29.57,10.0,SSE,31.1,39.1,N/A,,Clear,160,2013-02-09 22:15:00
4:35 PM,55.4,35.6,47,29.56,10.0,South,28.8,36.8,N/A,,Clear,170,2013-02-09 22:35:00
4:55 PM,55.4,37.4,51,29.55,10.0,SSE,29.9,39.1,N/A,,Clear,160,2013-02-09 22:55:00
5:15 PM,53.6,37.4,54,29.54,10.0,SSE,29.9,38.0,N/A,,Clear,160,2013-02-09 23:15:00
5:35 PM,50.0,41.0,71,29.54,10.0,SE,26.5,29.9,N/A,,Scattered Clouds,140,2013-02-09 23:35:00
5:55 PM,48.2,42.8,82,29.55,10.0,SE,24.2,32.2,N/A,,Mostly Cloudy,140,2013-02-09 23:55:00
6:15 PM,48.2,42.8,82,29.55,7.0,SE,25.3,33.4,N/A,,Mostly Cloudy,140,2013-02-10 00:15:00
6:35 PM,46.4,42.8,87,29.55,7.0,SSE,24.2,31.1,N/A,,Overcast,150,2013-02-10 00:35:00
6:55 PM,46.4,42.8,87,29.57,7.0,SSE,21.9,27.6,N/A,,Overcast,150,2013-02-10 00:55:00
7:15 PM,46.4,42.8,87,29.56,7.0,SSE,24.2,31.1,N/A,,Overcast,160,2013-02-10 01:15:00
7:35 PM,48.2,44.6,87,29.60,7.0,South,23.0,29.9,N/A,,Overcast,180,2013-02-10 01:35:00
7:55 PM,48.2,44.6,87,29.61,7.0,South,17.3,27.6,N/A,,Overcast,190,2013-02-10 01:55:00
8:15 PM,48.2,44.6,87,29.62,7.0,SSW,13.8,-,N/A,Thunderstorm,Overcast,210,2013-02-10 02:15:00
8:35 PM,50.0,30.2,47,29.63,7.0,West,23.0,29.9,N/A,,Overcast,260,2013-02-10 02:35:00
8:55 PM,50.0,21.2,32,29.64,10.0,West,20.7,33.4,N/A,,Overcast,260,2013-02-10 02:55:00
9:15 PM,48.2,19.4,32,29.65,10.0,WSW,26.5,31.1,N/A,,Overcast,250,2013-02-10 03:15:00
9:35 PM,46.4,17.6,32,29.64,10.0,West,18.4,27.6,N/A,,Overcast,260,2013-02-10 03:35:00
9:55 PM,46.4,10.4,23,29.64,10.0,West,26.5,35.7,N/A,,Overcast,260,2013-02-10 03:55:00
10:15 PM,44.6,12.2,27,29.65,10.0,West,23.0,32.2,N/A,,Overcast,260,2013-02-10 04:15:00
10:35 PM,42.8,12.2,29,29.64,10.0,WSW,18.4,25.3,N/A,,Mostly Cloudy,250,2013-02-10 04:35:00
10:55 PM,41.0,10.4,29,29.65,10.0,WSW,16.1,-,N/A,,Clear,240,2013-02-10 04:55:00
11:15 PM,41.0,8.6,26,29.65,10.0,WSW,15.0,-,N/A,,Clear,240,2013-02-10 05:15:00
11:35 PM,41.0,8.6,26,29.64,10.0,WSW,17.3,25.3,N/A,,Clear,240,2013-02-10 05:35:00
11:55 PM,39.2,8.6,28,29.64,10.0,WSW,17.3,-,N/A,,Clear,250,2013-02-10 05:55:00